Time,TemperatureF,DewpointF,PressureIn,WindDirection,WindDirectionDegrees,WindSpeedMPH,WindSpeedGustMPH,Humidity,HourlyPrecipIn,Conditions,Clouds,dailyrainin,SoftwareType,DateUTC
2013-05-31 00:06:00,70.0,66.0,30.14,NE,50,0.0,0.0,86,0.00,,,0.00,weatherlink.com 1.10,2013-05-31 04:06:00,
2013-05-31 00:21:00,70.0,66.0,30.15,NE,50,0.0,0.0,86,0.00,,,0.00,weatherlink.com 1.10,2013-05-31 04:21:00,
2013-05-31 00:36:00,69.7,65.0,30.15,NE,50,0.0,0.0,86,0.00,,,0.00,weatherlink.com 1.10,2013-05-31 04:36:00,
2013-05-31 00:51:00,69.2,65.0,30.15,NE,49,0.0,0.0,87,0.00,,,0.00,weatherlink.com 1.10,2013-05-31 04:51:00,
2013-05-31 01:06:00,68.9,65.0,30.15,NE,50,0.0,0.0,88,0.00,,,0.00,weatherlink.com 1.10,2013-05-31 05:06:00,
2013-05-31 01:21:00,68.7,65.0,30.15,NE,50,0.0,0.0,88,0.00,,,0.00,weatherlink.com 1.10,2013-05-31 05:21:00,
2013-05-31 01:36:00,68.7,65.0,30.15,NE,50,0.0,0.0,88,0.00,,,0.00,weatherlink.com 1.10,2013-05-31 05:36:00,
2013-05-31 01:51:00,68.8,65.0,30.15,NE,50,0.0,0.0,88,0.00,,,0.00,weatherlink.com 1.10,2013-05-31 05:51:00,
2013-05-31 02:06:00,68.7,65.0,30.15,NE,50,0.0,0.0,88,0.00,,,0.00,weatherlink.com 1.10,2013-05-31 06:06:00,
2013-05-31 02:21:00,68.6,65.0,30.14,NE,50,0.0,0.0,88,0.00,,,0.00,weatherlink.com 1.10,2013-05-31 06:21:00,
2013-05-31 02:36:00,68.7,65.0,30.14,NE,50,0.0,0.0,88,0.00,,,0.00,weatherlink.com 1.10,2013-05-31 06:36:00,
2013-05-31 02:51:00,68.8,65.0,30.14,NE,50,0.0,0.0,88,0.00,,,0.00,weatherlink.com 1.10,2013-05-31 06:51:00,
2013-05-31 03:06:00,68.6,65.0,30.14,NE,50,0.0,0.0,88,0.00,,,0.00,weatherlink.com 1.10,2013-05-31 07:06:00,
2013-05-31 03:21:00,68.4,65.0,30.13,NE,50,0.0,0.0,88,0.00,,,0.00,weatherlink.com 1.10,2013-05-31 07:21:00,
2013-05-31 03:36:00,68.1,65.0,30.12,NE,50,0.0,0.0,89,0.00,,,0.00,weatherlink.com 1.10,2013-05-31 07:36:00,
2013-05-31 03:51:00,68.0,65.0,30.12,NE,50,0.0,0.0,89,0.00,,,0.00,weatherlink.com 1.10,2013-05-31 07:51:00,
2013-05-31 04:06:00,67.6,65.0,30.12,West,259,0.0,1.0,90,0.00,,,0.00,weatherlink.com 1.10,2013-05-31 08:06:00,
2013-05-31 04:21:00,67.3,64.0,30.12,West,259,0.0,1.0,90,0.00,,,0.00,weatherlink.com 1.10,2013-05-31 08:21:00,
2013-05-31 04:36:00,67.0,64.0,30.11,WSW,257,0.0,0.0,91,0.00,,,0.00,weatherlink.com 1.10,2013-05-31 08:36:00,
2013-05-31 04:51:00,66.9,64.0,30.12,NNW,335,0.0,0.0,91,0.00,,,0.00,weatherlink.com 1.10,2013-05-31 08:51:00,
2013-05-31 05:06:00,66.8,64.0,30.12,NNW,336,0.0,0.0,91,0.00,,,0.00,weatherlink.com 1.10,2013-05-31 09:06:00,
2013-05-31 05:21:00,66.9,65.0,30.12,NNW,336,0.0,0.0,92,0.00,,,0.00,weatherlink.com 1.10,2013-05-31 09:21:00,
2013-05-31 05:36:00,67.3,65.0,30.13,SW,217,1.0,1.0,92,0.00,,,0.00,weatherlink.com 1.10,2013-05-31 09:36:00,
2013-05-31 05:51:00,68.0,65.0,30.14,SW,226,0.0,2.0,91,0.00,,,0.00,weatherlink.com 1.10,2013-05-31 09:51:00,
2013-05-31 06:06:00,68.2,66.0,30.14,SW,232,0.0,1.0,91,0.00,,,0.00,weatherlink.com 1.10,2013-05-31 10:06:00,
2013-05-31 06:21:00,68.6,66.0,30.14,SSW,207,0.0,1.0,90,0.00,,,0.00,weatherlink.com 1.10,2013-05-31 10:21:00,
2013-05-31 06:36:00,68.8,66.0,30.15,WNW,295,0.0,2.0,89,0.00,,,0.00,weatherlink.com 1.10,2013-05-31 10:36:00,
2013-05-31 06:51:00,68.9,66.0,30.15,NE,52,0.0,3.0,89,0.00,,,0.00,weatherlink.com 1.10,2013-05-31 10:51:00,
2013-05-31 07:06:00,69.0,66.0,30.15,ENE,63,0.0,2.0,89,0.00,,,0.00,weatherlink.com 1.10,2013-05-31 11:06:00,
2013-05-31 07:21:00,69.3,66.0,30.16,WSW,249,0.0,2.0,88,0.00,,,0.00,weatherlink.com 1.10,2013-05-31 11:21:00,
2013-05-31 07:36:00,69.6,66.0,30.16,East,81,0.0,1.0,88,0.00,,,0.00,weatherlink.com 1.10,2013-05-31 11:36:00,
2013-05-31 07:51:00,69.9,66.0,30.16,SSW,203,0.0,1.0,88,0.00,,,0.00,weatherlink.com 1.10,2013-05-31 11:51:00,
2013-05-31 08:06:00,70.4,66.0,30.17,SW,235,0.0,4.0,87,0.00,,,0.00,weatherlink.com 1.10,2013-05-31 12:06:00,
2013-05-31 08:21:00,70.7,66.0,30.18,SW,222,0.0,7.0,85,0.00,,,0.00,weatherlink.com 1.10,2013-05-31 12:21:00,
2013-05-31 08:36:00,71.2,67.0,30.18,East,88,0.0,3.0,85,0.00,,,0.00,weatherlink.com 1.10,2013-05-31 12:36:00,
2013-05-31 08:52:00,71.6,67.0,30.18,SW,221,0.0,3.0,85,0.00,,,0.00,weatherlink.com 1.10,2013-05-31 12:52:00,
2013-05-31 09:07:00,72.3,67.0,30.19,SSE,157,0.0,4.0,83,0.00,,,0.00,weatherlink.com 1.10,2013-05-31 13:07:00,
2013-05-31 09:22:00,72.8,68.0,30.19,South,172,0.0,0.0,84,0.00,,,0.00,weatherlink.com 1.10,2013-05-31 13:22:00,
2013-05-31 09:37:00,73.2,68.0,30.18,West,264,1.0,8.0,83,0.00,,,0.00,weatherlink.com 1.10,2013-05-31 13:37:00,
2013-05-31 09:52:00,73.3,67.0,30.18,West,264,0.0,4.0,81,0.00,,,0.00,weatherlink.com 1.10,2013-05-31 13:52:00,
2013-05-31 10:07:00,74.1,67.0,30.18,SSW,200,3.0,7.0,78,0.00,,,0.00,weatherlink.com 1.10,2013-05-31 14:07:00,
2013-05-31 10:22:00,74.8,68.0,30.18,SW,228,1.0,2.0,78,0.00,,,0.00,weatherlink.com 1.10,2013-05-31 14:22:00,
2013-05-31 10:37:00,75.4,68.0,30.17,SSE,149,0.0,1.0,78,0.00,,,0.00,weatherlink.com 1.10,2013-05-31 14:37:00,
2013-05-31 10:52:00,76.4,68.0,30.17,South,184,0.0,5.0,76,0.00,,,0.00,weatherlink.com 1.10,2013-05-31 14:52:00,
2013-05-31 11:07:00,77.1,69.0,30.17,ENE,65,0.0,2.0,75,0.00,,,0.00,weatherlink.com 1.10,2013-05-31 15:07:00,
2013-05-31 11:22:00,77.3,68.0,30.17,East,94,0.0,4.0,73,0.00,,,0.00,weatherlink.com 1.10,2013-05-31 15:22:00,
2013-05-31 11:37:00,77.5,68.0,30.16,East,80,0.0,1.0,73,0.00,,,0.00,weatherlink.com 1.10,2013-05-31 15:37:00,
2013-05-31 11:52:00,78.8,68.0,30.16,NE,40,2.0,5.0,69,0.00,,,0.00,weatherlink.com 1.10,2013-05-31 15:52:00,
2013-05-31 12:07:00,80.5,68.0,30.16,ENE,63,0.0,3.0,65,0.00,,,0.00,weatherlink.com 1.10,2013-05-31 16:07:00,
2013-05-31 12:22:00,81.7,68.0,30.15,ESE,110,0.0,4.0,63,0.00,,,0.00,weatherlink.com 1.10,2013-05-31 16:22:00,
2013-05-31 12:37:00,82.2,68.0,30.15,NE,41,0.0,4.0,63,0.00,,,0.00,weatherlink.com 1.10,2013-05-31 16:37:00,
2013-05-31 12:52:00,82.5,67.0,30.15,WSW,256,0.0,1.0,60,0.00,,,0.00,weatherlink.com 1.10,2013-05-31 16:52:00,
2013-05-31 13:07:00,82.0,68.0,30.14,NE,42,0.0,1.0,62,0.00,,,0.00,weatherlink.com 1.10,2013-05-31 17:07:00,
2013-05-31 13:22:00,82.1,67.0,30.13,SW,219,4.0,10.0,60,0.00,,,0.00,weatherlink.com 1.10,2013-05-31 17:22:00,
2013-05-31 13:37:00,83.3,68.0,30.13,NE,42,0.0,3.0,60,0.00,,,0.00,weatherlink.com 1.10,2013-05-31 17:37:00,
2013-05-31 13:52:00,84.1,67.0,30.13,West,273,1.0,5.0,57,0.00,,,0.00,weatherlink.com 1.10,2013-05-31 17:52:00,
2013-05-31 14:07:00,85.2,68.0,30.12,ENE,64,0.0,6.0,56,0.00,,,0.00,weatherlink.com 1.10,2013-05-31 18:07:00,
2013-05-31 14:22:00,86.4,68.0,30.11,East,92,1.0,10.0,54,0.00,,,0.00,weatherlink.com 1.10,2013-05-31 18:22:00,
2013-05-31 14:37:00,86.6,67.0,30.10,ENE,62,0.0,5.0,52,0.00,,,0.00,weatherlink.com 1.10,2013-05-31 18:37:00,
2013-05-31 14:52:00,85.6,67.0,30.10,NE,49,0.0,5.0,54,0.00,,,0.00,weatherlink.com 1.10,2013-05-31 18:52:00,
2013-05-31 15:07:00,86.0,67.0,30.09,ESE,120,2.0,4.0,54,0.00,,,0.00,weatherlink.com 1.10,2013-05-31 19:07:00,
2013-05-31 15:22:00,85.5,66.0,30.09,ENE,75,0.0,1.0,52,0.00,,,0.00,weatherlink.com 1.10,2013-05-31 19:22:00,
2013-05-31 15:38:00,87.1,67.0,30.08,East,86,1.0,4.0,52,0.00,,,0.00,weatherlink.com 1.10,2013-05-31 19:38:00,
2013-05-31 15:53:00,87.1,66.0,30.08,NE,38,0.0,5.0,49,0.00,,,0.00,weatherlink.com 1.10,2013-05-31 19:53:00,
2013-05-31 16:08:00,86.2,66.0,30.08,East,79,0.0,5.0,52,0.00,,,0.00,weatherlink.com 1.10,2013-05-31 20:08:00,
2013-05-31 16:24:00,87.6,65.0,30.08,SE,139,3.0,7.0,47,0.00,,,0.00,weatherlink.com 1.10,2013-05-31 20:24:00,
2013-05-31 16:38:00,87.5,65.0,30.08,SSE,158,1.0,9.0,47,0.00,,,0.00,weatherlink.com 1.10,2013-05-31 20:38:00,
2013-05-31 16:53:00,87.2,65.0,30.07,NE,47,0.0,2.0,48,0.00,,,0.00,weatherlink.com 1.10,2013-05-31 20:53:00,
2013-05-31 17:08:00,85.6,65.0,30.07,NE,56,0.0,2.0,51,0.00,,,0.00,weatherlink.com 1.10,2013-05-31 21:08:00,
2013-05-31 17:23:00,87.0,64.0,30.07,SW,228,0.0,6.0,46,0.00,,,0.00,weatherlink.com 1.10,2013-05-31 21:23:00,
2013-05-31 17:38:00,87.1,64.0,30.07,ESE,122,0.0,6.0,46,0.00,,,0.00,weatherlink.com 1.10,2013-05-31 21:38:00,
2013-05-31 17:53:00,86.5,65.0,30.07,West,266,0.0,2.0,48,0.00,,,0.00,weatherlink.com 1.10,2013-05-31 21:53:00,
2013-05-31 18:08:00,87.1,64.0,30.06,WSW,251,0.0,4.0,47,0.00,,,0.00,weatherlink.com 1.10,2013-05-31 22:08:00,
2013-05-31 18:23:00,86.6,65.0,30.06,ESE,105,0.0,5.0,48,0.00,,,0.00,weatherlink.com 1.10,2013-05-31 22:23:00,
2013-05-31 18:38:00,86.2,65.0,30.06,ENE,73,0.0,5.0,49,0.00,,,0.00,weatherlink.com 1.10,2013-05-31 22:38:00,
2013-05-31 18:53:00,85.3,65.0,30.05,ENE,77,1.0,1.0,51,0.00,,,0.00,weatherlink.com 1.10,2013-05-31 22:53:00,
2013-05-31 19:08:00,83.2,65.0,30.06,ENE,62,0.0,1.0,54,0.00,,,0.00,weatherlink.com 1.10,2013-05-31 23:08:00,
2013-05-31 19:23:00,83.0,66.0,30.06,SW,215,0.0,3.0,56,0.00,,,0.00,weatherlink.com 1.10,2013-05-31 23:23:00,
2013-05-31 19:38:00,81.4,66.0,30.06,East,84,0.0,0.0,59,0.00,,,0.00,weatherlink.com 1.10,2013-05-31 23:38:00,
2013-05-31 19:53:00,80.5,65.0,30.06,SW,219,0.0,0.0,60,0.00,,,0.00,weatherlink.com 1.10,2013-05-31 23:53:00,
2013-05-31 20:08:00,80.2,64.0,30.06,NE,52,0.0,1.0,59,0.00,,,0.00,weatherlink.com 1.10,2013-06-01 00:08:00,
2013-05-31 20:23:00,78.8,65.0,30.07,NE,52,0.0,0.0,62,0.00,,,0.00,weatherlink.com 1.10,2013-06-01 00:23:00,
2013-05-31 20:38:00,77.5,65.0,30.07,NE,53,0.0,0.0,65,0.00,,,0.00,weatherlink.com 1.10,2013-06-01 00:38:00,
2013-05-31 20:53:00,76.5,64.0,30.06,NE,52,0.0,0.0,66,0.00,,,0.00,weatherlink.com 1.10,2013-06-01 00:53:00,
2013-05-31 21:08:00,75.4,65.0,30.06,NE,52,0.0,0.0,69,0.00,,,0.00,weatherlink.com 1.10,2013-06-01 01:08:00,
2013-05-31 21:23:00,74.5,65.0,30.06,NE,52,0.0,0.0,71,0.00,,,0.00,weatherlink.com 1.10,2013-06-01 01:23:00,
2013-05-31 21:38:00,73.7,65.0,30.06,NE,52,0.0,0.0,73,0.00,,,0.00,weatherlink.com 1.10,2013-06-01 01:38:00,
2013-05-31 21:53:00,73.1,64.0,30.07,NE,52,0.0,0.0,73,0.00,,,0.00,weatherlink.com 1.10,2013-06-01 01:53:00,
2013-05-31 22:08:00,72.6,64.0,30.07,NE,52,0.0,0.0,74,0.00,,,0.00,weatherlink.com 1.10,2013-06-01 02:08:00,
2013-05-31 22:23:00,72.2,64.0,30.07,NE,53,0.0,0.0,75,0.00,,,0.00,weatherlink.com 1.10,2013-06-01 02:23:00,
2013-05-31 22:38:00,71.7,64.0,30.07,NE,52,0.0,0.0,76,0.00,,,0.00,weatherlink.com 1.10,2013-06-01 02:38:00,
2013-05-31 22:53:00,71.3,64.0,30.07,NE,52,0.0,0.0,77,0.00,,,0.00,weatherlink.com 1.10,2013-06-01 02:53:00,
2013-05-31 23:08:00,71.0,64.0,30.07,NE,53,0.0,0.0,78,0.00,,,0.00,weatherlink.com 1.10,2013-06-01 03:08:00,
2013-05-31 23:23:00,70.8,64.0,30.06,NE,52,0.0,0.0,79,0.00,,,0.00,weatherlink.com 1.10,2013-06-01 03:23:00,
2013-05-31 23:38:00,70.4,64.0,30.06,NE,52,0.0,0.0,80,0.00,,,0.00,weatherlink.com 1.10,2013-06-01 03:38:00,
2013-05-31 23:53:00,70.1,64.0,30.06,NE,52,0.0,0.0,81,0.00,,,0.00,weatherlink.com 1.10,2013-06-01 03:53:00,